Aroma Park, IL

7:42 PM CST on February 22, 2017 (GMT -0600)
Greater Kankakee

Weather History for KIKK - October, 2013

Change the Weather History Date:

Thursday, October 31, 2013

  Actual Average Record
Temperature  
Mean Temperature 55 °F -  
Max Temperature 63 °F 60 °F 76 °F (1981)
Min Temperature 46 °F 38 °F 25 °F (1993)
Degree Days  
Heating Degree Days 10    
Growing Degree Days 5 (Base 50)    
Moisture  
Dew Point 57 °F    
Average Humidity 94    
Maximum Humidity 97    
Minimum Humidity 87    
Precipitation  
Precipitation 0.60 in - - ()
Sea Level Pressure  
Sea Level Pressure 29.52 in    
Wind  
Wind Speed 16 mph (SSW)    
Max Wind Speed 25 mph    
Max Gust Speed 31 mph    
Visibility 9 miles    
Events Rain    
Averages and records for this station are not official NWS values.
T = Trace of Precipitation, MM = Missing Value Source: NWS Daily Summary

Daily Weather History Graph

Daily Weather History Graph

Search for Another Location

Airport or City:

Trip Planner

Search our weather history database for the weather conditions in past years. The results will help you decide how hot, cold, wet, or windy it might be!

Date:

Astronomy

Oct. 31, 2013 Rise Set
Actual Time 7:21 AM CDT 5:47 PM CDT
Civil Twilight 6:52 AM CDT 6:16 PM CDT
Nautical Twilight 6:20 AM CDT 6:48 PM CDT
Astronomical Twilight 5:48 AM CDT 7:20 PM CDT
Moon 4:09 AM CDT (10/31) 4:07 PM CDT (10/31)
Length of Visible Light 11h 23m
Length of Day
10h 26m
Waning Crescent, 10% of the Moon is Illuminated
Oct 31
Waning Crescent
Nov 3
New
Nov 9
First Quarter
Nov 17
Full
Nov 25
Last Quarter

Hourly Weather History & Observations

Time (CDT) Temp. Dew Point Humidity Pressure Visibility Wind Dir Wind Speed Gust Speed Precip Events Conditions
12:15 AM 63.9 °F 62.6 °F 96% 29.81 in 10.0 mi SSW 18.4 mph 24.2 mph 0.01 in Rain Light Rain
12:35 AM 63.9 °F 62.1 °F 94% 29.81 in 10.0 mi SSW 23.0 mph 29.9 mph 0.01 in Rain Light Rain
12:55 AM 63.5 °F 62.2 °F 96% 29.80 in 5.0 mi SSW 17.3 mph 27.6 mph 0.03 in Rain Heavy Rain
1:15 AM 63.5 °F 62.1 °F 95% 29.79 in 7.0 mi South 18.4 mph 26.5 mph 0.02 in Rain Rain
1:35 AM 63.3 °F 61.3 °F 93% 29.79 in 7.0 mi SSW 20.7 mph 31.1 mph 0.02 in Rain Rain
1:55 AM 62.8 °F 61.2 °F 94% 29.78 in 7.0 mi SSW 20.7 mph 26.5 mph 0.04 in Rain Light Rain
2:15 AM 62.6 °F 60.8 °F 94% 29.77 in 7.0 mi SSW 20.7 mph 27.6 mph 0.03 in Rain Light Rain
2:35 AM 62.2 °F 60.8 °F 95% 29.77 in 7.0 mi South 16.1 mph 25.3 mph 0.05 in Rain Light Rain
2:55 AM 62.2 °F 61.0 °F 96% 29.76 in 7.0 mi South 17.3 mph 23.0 mph 0.08 in Rain Light Rain
3:15 AM 62.4 °F 61.5 °F 97% 29.74 in 3.0 mi South 17.3 mph 23.0 mph 0.08 in Rain Rain
3:35 AM 62.2 °F 61.0 °F 96% 29.73 in 7.0 mi South 15.0 mph 21.9 mph 0.08 in   Light Drizzle
3:55 AM 62.6 °F 60.8 °F 94% 29.72 in 10.0 mi SSW 17.3 mph 29.9 mph 0.09 in   Drizzle
4:15 AM 62.6 °F 60.8 °F 94% 29.70 in 10.0 mi SSW 18.4 mph 21.9 mph N/A   Light Drizzle
4:35 AM 61.7 °F 61.0 °F 97% 29.69 in 3.0 mi South 9.2 mph - 0.01 in Rain Rain
4:55 AM 61.7 °F 61.0 °F 97% 29.68 in 5.0 mi South 13.8 mph 20.7 mph 0.05 in Rain Rain
5:15 AM 62.1 °F 61.2 °F 97% 29.67 in 10.0 mi South 12.7 mph - 0.01 in Rain Rain
5:35 AM 61.9 °F 61.0 °F 97% 29.67 in 10.0 mi South 13.8 mph 18.4 mph 0.02 in Rain Light Rain
5:55 AM 62.4 °F 61.0 °F 95% 29.67 in 7.0 mi SSW 16.1 mph 24.2 mph 0.04 in Rain Light Rain
6:15 AM 62.2 °F 60.6 °F 94% 29.66 in 10.0 mi SSW 18.4 mph 26.5 mph 0.02 in Rain Light Rain
6:35 AM 62.1 °F 60.8 °F 96% 29.66 in 10.0 mi SSW 13.8 mph 20.7 mph 0.03 in Rain Rain
6:55 AM 61.9 °F 60.8 °F 96% 29.65 in 10.0 mi SSW 15.0 mph 21.9 mph 0.04 in Rain Light Rain
7:15 AM 61.7 °F 60.4 °F 96% 29.64 in 10.0 mi South 13.8 mph - N/A   Light Drizzle
7:35 AM 61.7 °F 60.4 °F 96% 29.64 in 10.0 mi SSW 13.8 mph - N/A   Light Drizzle
7:55 AM 61.7 °F 60.4 °F 96% 29.63 in 10.0 mi SSW 12.7 mph - 0.01 in   Drizzle
8:15 AM 61.9 °F 60.8 °F 96% 29.64 in 10.0 mi SSW 11.5 mph 17.3 mph N/A   Drizzle
8:35 AM 61.9 °F 60.8 °F 96% 29.64 in 10.0 mi SSW 10.4 mph 17.3 mph 0.01 in Rain Rain
8:55 AM 61.9 °F 60.8 °F 96% 29.63 in 7.0 mi SSW 11.5 mph - 0.03 in Rain Light Rain
9:15 AM 62.1 °F 61.0 °F 96% 29.62 in 10.0 mi SSW 9.2 mph - N/A   Drizzle
9:35 AM 62.1 °F 61.0 °F 96% 29.60 in 10.0 mi SSW 9.2 mph 16.1 mph 0.01 in   Drizzle
9:55 AM 62.2 °F 60.8 °F 95% 29.59 in 10.0 mi South 13.8 mph - 0.01 in   Drizzle
10:15 AM 62.2 °F 61.0 °F 96% 29.57 in 10.0 mi South 11.5 mph - N/A   Drizzle
10:35 AM 62.2 °F 61.0 °F 96% 29.57 in 10.0 mi South 11.5 mph - N/A   Drizzle
10:55 AM 62.2 °F 61.0 °F 96% 29.56 in 10.0 mi South 11.5 mph 17.3 mph 0.01 in Rain Light Rain
11:15 AM 62.6 °F 61.3 °F 96% 29.54 in 10.0 mi South 9.2 mph - N/A   Drizzle
11:35 AM 62.4 °F 61.2 °F 96% 29.53 in 10.0 mi South 8.1 mph - N/A   Light Drizzle
11:55 AM 61.7 °F 60.8 °F 97% 29.51 in 2.5 mi South 10.4 mph - 0.04 in Rain Rain
12:15 PM 61.0 °F 59.9 °F 96% 29.49 in 3.0 mi South 15.0 mph 23.0 mph 0.01 in Rain Light Rain
12:35 PM 60.8 °F 59.5 °F 96% 29.47 in 5.0 mi South 9.2 mph - 0.02 in Rain Light Rain
12:55 PM 60.8 °F 59.2 °F 94% 29.45 in 10.0 mi South 13.8 mph - 0.03 in   Drizzle
1:15 PM 60.4 °F 59.0 °F 95% 29.42 in 10.0 mi South 13.8 mph 19.6 mph N/A   Drizzle
1:35 PM 60.4 °F 59.2 °F 96% 29.40 in 5.0 mi South 16.1 mph 25.3 mph 0.04 in Rain Light Rain
1:55 PM 60.6 °F 59.0 °F 94% 29.38 in 10.0 mi South 19.6 mph 24.2 mph 0.04 in   Light Drizzle
2:15 PM 60.4 °F 59.0 °F 95% 29.36 in 7.0 mi South 16.1 mph 21.9 mph N/A   Light Drizzle
2:35 PM 60.4 °F 59.4 °F 96% 29.35 in 4.0 mi South 16.1 mph 23.0 mph N/A Rain Light Rain
2:55 PM 60.4 °F 59.4 °F 96% 29.34 in 5.0 mi South 16.1 mph 24.2 mph 0.01 in Rain Light Rain
3:15 PM 60.8 °F 59.4 °F 95% 29.31 in 10.0 mi South 17.3 mph 24.2 mph N/A Rain Light Rain
3:35 PM 61.2 °F 59.9 °F 96% 29.29 in 10.0 mi South 17.3 mph 26.5 mph N/A Rain Light Rain
3:55 PM 61.5 °F 59.9 °F 94% 29.29 in 10.0 mi South 15.0 mph 26.5 mph N/A   Overcast
4:15 PM 61.9 °F 60.1 °F 94% 29.26 in 10.0 mi South 16.1 mph 25.3 mph N/A   Overcast
4:35 PM 62.4 °F 60.6 °F 94% 29.26 in 10.0 mi South 20.7 mph 28.8 mph N/A   Overcast
4:55 PM 63.0 °F 60.8 °F 93% 29.26 in 10.0 mi SSW 25.3 mph 31.1 mph N/A   Overcast
5:15 PM 61.2 °F 58.6 °F 91% 29.28 in 10.0 mi WSW 16.1 mph 27.6 mph N/A   Overcast
5:35 PM 58.8 °F 56.3 °F 91% 29.29 in 10.0 mi West 19.6 mph 27.6 mph N/A   Overcast
5:55 PM 57.4 °F 55.0 °F 92% 29.30 in 10.0 mi West 16.1 mph 20.7 mph N/A   Overcast
6:15 PM 56.5 °F 53.8 °F 91% 29.30 in 10.0 mi West 16.1 mph - N/A   Overcast
6:35 PM 56.3 °F 53.8 °F 91% 29.31 in 10.0 mi West 16.1 mph 23.0 mph N/A   Overcast
6:55 PM 55.8 °F 53.6 °F 92% 29.33 in 10.0 mi West 19.6 mph 26.5 mph N/A   Overcast
7:15 PM 54.1 °F 52.2 °F 93% 29.33 in 7.0 mi West 17.3 mph - N/A Rain Rain
7:35 PM 53.6 °F 51.1 °F 91% 29.33 in 10.0 mi West 16.1 mph 28.8 mph 0.01 in Rain Rain
7:55 PM 53.1 °F 50.9 °F 92% 29.35 in 10.0 mi West 17.3 mph 27.6 mph 0.01 in Rain Rain
8:15 PM 52.0 °F 50.0 °F 93% 29.37 in 10.0 mi West 15.0 mph 26.5 mph 0.01 in Rain Light Rain
8:35 PM 50.9 °F 49.1 °F 94% 29.37 in 10.0 mi West 12.7 mph - 0.01 in   Light Drizzle
8:55 PM 50.5 °F 48.6 °F 93% 29.38 in 10.0 mi West 10.4 mph - 0.02 in Rain Light Rain
9:15 PM 50.0 °F 47.8 °F 92% 29.39 in 10.0 mi West 11.5 mph - 0.01 in Rain Light Rain
9:35 PM 49.8 °F 47.5 °F 92% 29.39 in 10.0 mi West 9.2 mph - 0.02 in Rain Rain
9:55 PM 50.0 °F 47.7 °F 92% 29.40 in 10.0 mi WSW 8.1 mph - 0.02 in   Overcast
10:15 PM 49.3 °F 47.3 °F 93% 29.40 in 10.0 mi West 15.0 mph 20.7 mph N/A   Drizzle
10:35 PM 48.6 °F 45.0 °F 87% 29.42 in 10.0 mi West 19.6 mph 28.8 mph N/A   Overcast
10:55 PM 48.0 °F 45.0 °F 89% 29.43 in 10.0 mi West 15.0 mph 23.0 mph N/A   Overcast
11:15 PM 47.7 °F 45.5 °F 92% 29.44 in 10.0 mi West 16.1 mph 20.7 mph N/A   Overcast
11:35 PM 47.3 °F 43.9 °F 88% 29.45 in 10.0 mi West 19.6 mph 26.5 mph N/A   Overcast
11:55 PM 46.8 °F 43.9 °F 90% 29.46 in 10.0 mi West 21.9 mph 26.5 mph N/A   Overcast